Radiation Dose at Monitoring Post of Fukushima Daini Nuclear Power Station
Date,Time,MP-1(microSv/h),MP-2(microSv/h),MP-3(microSv/h),MP-4(microSv/h),MP-5(microSv/h),MP-6(microSv/h),MP-7(microSv/h),Wind Direction,Wind Velocity(m/s),Rain
2015/08/29,00:00,0.486,0.277,0.498,0.455,0.449,0.221,0.192,north,3.7,Yes
2015/08/29,00:10,0.487,0.279,0.501,0.457,0.451,0.222,0.192,north,3.8,Yes
2015/08/29,00:20,0.483,0.279,0.494,0.459,0.446,0.222,0.192,north-northwest,4.5,No
2015/08/29,00:30,0.488,0.277,0.501,0.454,0.452,0.222,0.190,north,4.6,No
2015/08/29,00:40,0.486,0.278,0.497,0.461,0.448,0.223,0.192,north-northwest,4.6,No
2015/08/29,00:50,0.484,0.276,0.497,0.458,0.450,0.221,0.191,north-northwest,4.2,No
2015/08/29,01:00,0.489,0.279,0.501,0.457,0.450,0.223,0.192,north,4.7,No
2015/08/29,01:10,0.482,0.278,0.496,0.460,0.446,0.222,0.191,north,4.7,No
2015/08/29,01:20,0.487,0.276,0.502,0.454,0.449,0.221,0.191,north,4.0,No
2015/08/29,01:30,0.489,0.278,0.499,0.458,0.447,0.221,0.192,north,4.5,No
2015/08/29,01:40,0.483,0.276,0.494,0.455,0.449,0.220,0.191,north,4.8,No
2015/08/29,01:50,0.489,0.279,0.501,0.454,0.449,0.222,0.193,north-northwest,4.9,No
2015/08/29,02:00,0.483,0.278,0.494,0.459,0.447,0.220,0.191,north-northwest,5.0,No
2015/08/29,02:10,0.484,0.278,0.499,0.453,0.453,0.223,0.192,north-northwest,5.1,Yes
2015/08/29,02:20,0.488,0.278,0.499,0.457,0.447,0.221,0.190,north-northwest,5.7,Yes
2015/08/29,02:30,0.483,0.277,0.494,0.457,0.449,0.223,0.192,north-northwest,5.9,No
2015/08/29,02:40,0.488,0.279,0.501,0.455,0.449,0.222,0.192,north-northwest,6.2,Yes
2015/08/29,02:50,0.486,0.279,0.497,0.459,0.447,0.223,0.191,north,5.7,Yes
2015/08/29,03:00,0.487,0.279,0.498,0.456,0.450,0.224,0.194,north,5.6,Yes
2015/08/29,03:10,0.488,0.281,0.502,0.457,0.449,0.223,0.194,north,5.0,Yes
2015/08/29,03:20,0.484,0.279,0.494,0.458,0.451,0.226,0.195,north,4.5,Yes
2015/08/29,03:30,0.487,0.281,0.503,0.454,0.447,0.225,0.195,north-northeast,3.8,Yes
2015/08/29,03:40,0.484,0.280,0.495,0.458,0.449,0.226,0.193,northeast,1.5,Yes
2015/08/29,03:50,0.482,0.281,0.497,0.453,0.451,0.226,0.196,east-southeast,2.0,Yes
2015/08/29,04:00,0.486,0.281,0.497,0.456,0.447,0.225,0.193,east-southeast,2.1,Yes
2015/08/29,04:10,0.480,0.280,0.491,0.452,0.453,0.226,0.194,east,1.9,Yes
2015/08/29,04:20,0.486,0.282,0.497,0.452,0.446,0.226,0.192,east,2.9,Yes
2015/08/29,04:30,0.481,0.279,0.491,0.455,0.449,0.224,0.192,east,3.4,Yes
2015/08/29,04:40,0.479,0.280,0.491,0.447,0.446,0.224,0.192,east-northeast,2.7,Yes
2015/08/29,04:50,0.481,0.278,0.490,0.452,0.444,0.224,0.192,east-northeast,2.4,Yes
2015/08/29,05:00,0.474,0.278,0.487,0.448,0.448,0.225,0.193,east-northeast,2.7,Yes
2015/08/29,05:10,0.481,0.280,0.491,0.446,0.444,0.222,0.192,east-northeast,2.5,Yes
2015/08/29,05:20,0.475,0.278,0.485,0.447,0.451,0.225,0.194,north-northeast,1.3,Yes
2015/08/29,05:30,0.480,0.281,0.491,0.446,0.444,0.223,0.193,southwest,1.6,Yes
2015/08/29,05:40,0.480,0.278,0.490,0.451,0.451,0.224,0.194,northeast,2.2,Yes
2015/08/29,05:50,0.479,0.281,0.489,0.446,0.447,0.225,0.192,northeast,3.2,Yes
2015/08/29,06:00,0.481,0.279,0.490,0.449,0.449,0.224,0.195,north-northeast,1.6,Yes
2015/08/29,06:10,0.477,0.279,0.485,0.447,0.448,0.225,0.192,northeast,2.7,Yes
2015/08/29,06:20,0.481,0.278,0.492,0.447,0.446,0.224,0.194,northeast,3.3,Yes
2015/08/29,06:30,0.476,0.278,0.489,0.450,0.450,0.224,0.193,northeast,2.5,Yes
2015/08/29,06:40,0.480,0.278,0.491,0.445,0.445,0.224,0.193,east-northeast,3.1,Yes
2015/08/29,06:50,0.478,0.277,0.490,0.449,0.449,0.222,0.192,east-northeast,2.6,Yes
2015/08/29,07:00,0.475,0.279,0.488,0.445,0.446,0.223,0.193,northeast,2.6,Yes
2015/08/29,07:10,0.480,0.277,0.492,0.450,0.448,0.222,0.192,northeast,2.8,Yes
2015/08/29,07:20,0.473,0.279,0.485,0.447,0.446,0.223,0.193,northeast,2.8,Yes
2015/08/29,07:30,0.479,0.275,0.491,0.447,0.446,0.222,0.191,northeast,2.5,Yes
2015/08/29,07:40,0.475,0.278,0.487,0.449,0.447,0.220,0.190,northeast,3.4,Yes
2015/08/29,07:50,0.477,0.277,0.488,0.444,0.442,0.222,0.191,northeast,4.2,Yes
2015/08/29,08:00,0.477,0.277,0.487,0.446,0.448,0.220,0.190,northeast,4.4,Yes
2015/08/29,08:10,0.475,0.275,0.485,0.443,0.442,0.222,0.191,east-northeast,3.8,Yes
2015/08/29,08:20,0.477,0.276,0.489,0.449,0.449,0.220,0.190,northeast,2.5,Yes
2015/08/29,08:30,0.472,0.277,0.485,0.448,0.445,0.221,0.190,northeast,2.9,No
2015/08/29,08:40,0.479,0.273,0.490,0.448,0.446,0.220,0.189,northeast,3.1,No
2015/08/29,08:50,0.473,0.276,0.488,0.449,0.446,0.220,0.191,northeast,3.0,No
2015/08/29,09:00,0.476,0.273,0.486,0.444,0.442,0.220,0.189,northeast,3.1,Yes
2015/08/29,09:10,0.475,0.274,0.490,0.449,0.446,0.218,0.189,northeast,2.9,Yes
2015/08/29,09:20,0.473,0.274,0.484,0.444,0.442,0.218,0.188,east-northeast,3.0,Yes
2015/08/29,09:30,0.478,0.273,0.491,0.448,0.446,0.217,0.189,northeast,2.6,Yes
2015/08/29,09:40,0.473,0.275,0.485,0.447,0.440,0.219,0.188,northeast,2.8,Yes
2015/08/29,09:50,0.478,0.273,0.488,0.444,0.446,0.219,0.189,northeast,1.9,Yes
2015/08/29,10:00,0.475,0.275,0.486,0.446,0.444,0.220,0.190,east-northeast,3.6,Yes
2015/08/29,10:10,0.474,0.275,0.483,0.441,0.445,0.220,0.190,south-southwest,3.9,Yes
2015/08/29,10:20,0.476,0.276,0.489,0.447,0.447,0.219,0.190,east-northeast,2.8,Yes
2015/08/29,10:30,0.473,0.276,0.483,0.445,0.442,0.220,0.189,east-northeast,3.0,Yes
2015/08/29,10:40,0.478,0.274,0.488,0.445,0.446,0.220,0.190,east-northeast,2.2,Yes
2015/08/29,10:50,0.473,0.276,0.487,0.448,0.442,0.219,0.188,northeast,2.4,No
2015/08/29,11:00,0.477,0.272,0.485,0.443,0.446,0.219,0.190,north-northeast,1.5,No
2015/08/29,11:10,0.478,0.275,0.489,0.448,0.445,0.217,0.188,north-northeast,1.6,Yes
2015/08/29,11:20,0.471,0.274,0.486,0.446,0.439,0.219,0.187,northeast,1.8,No
2015/08/29,11:30,0.478,0.272,0.491,0.446,0.448,0.216,0.189,north-northwest,1.4,Yes
2015/08/29,11:40,0.474,0.272,0.488,0.448,0.442,0.217,0.186,west-northwest,2.5,Yes
2015/08/29,11:50,0.476,0.271,0.487,0.443,0.443,0.217,0.188,northwest,2.1,Yes
2015/08/29,12:00,0.476,0.274,0.491,0.447,0.444,0.218,0.187,west-southwest,8.0,Yes
2015/08/29,12:10,0.475,0.272,0.484,0.445,0.443,0.220,0.189,north-northwest,3.6,Yes
2015/08/29,12:20,0.478,0.275,0.489,0.445,0.447,0.217,0.188,north-northwest,4.2,Yes
2015/08/29,12:30,0.472,0.275,0.485,0.446,0.443,0.220,0.189,north,3.1,Yes
2015/08/29,12:40,0.477,0.273,0.484,0.443,0.447,0.219,0.188,north,2.4,Yes
2015/08/29,12:50,0.475,0.277,0.489,0.448,0.442,0.218,0.188,north,1.9,Yes
2015/08/29,13:00,0.475,0.274,0.484,0.443,0.444,0.220,0.190,north-northeast,1.8,Yes
2015/08/29,13:10,0.477,0.277,0.490,0.447,0.444,0.218,0.188,east-northeast,1.7,Yes
2015/08/29,13:20,0.473,0.275,0.486,0.445,0.442,0.219,0.189,east,2.2,Yes
2015/08/29,13:30,0.479,0.275,0.486,0.445,0.448,0.218,0.189,southeast,2.6,Yes
2015/08/29,13:40,0.474,0.275,0.488,0.451,0.441,0.219,0.191,east-southeast,1.4,Yes
2015/08/29,13:50,0.475,0.274,0.485,0.444,0.446,0.220,0.191,south-southeast,1.7,Yes
2015/08/29,14:00,0.476,0.275,0.490,0.447,0.446,0.220,0.188,south-southeast,1.7,No
2015/08/29,14:10,0.474,0.275,0.488,0.446,0.442,0.221,0.190,south-southeast,1.4,No
2015/08/29,14:20,0.477,0.274,0.487,0.445,0.447,0.220,0.189,south,1.6,No
2015/08/29,14:30,0.473,0.274,0.488,0.450,0.442,0.219,0.189,south-southeast,1.4,Yes
2015/08/29,14:40,0.475,0.271,0.484,0.444,0.443,0.218,0.189,south,1.4,No
2015/08/29,14:50,0.478,0.274,0.490,0.448,0.445,0.217,0.188,south,1.0,No
2015/08/29,15:00,0.470,0.273,0.487,0.448,0.439,0.217,0.188,-,CALM,No
2015/08/29,15:10,0.475,0.273,0.486,0.444,0.446,0.216,0.186,-,CALM,No
2015/08/29,15:20,0.477,0.274,0.490,0.451,0.441,0.216,0.188,northwest,1.4,No
2015/08/29,15:30,0.471,0.272,0.485,0.447,0.443,0.217,0.186,west-northwest,2.1,Yes
2015/08/29,15:40,0.476,0.275,0.490,0.446,0.448,0.217,0.187,northwest,3.0,Yes
2015/08/29,15:50,0.474,0.273,0.488,0.449,0.440,0.218,0.188,north-northwest,2.8,No
2015/08/29,16:00,0.475,0.271,0.486,0.445,0.445,0.217,0.187,north-northwest,3.5,No
2015/08/29,16:10,0.478,0.274,0.491,0.450,0.443,0.218,0.188,north-northwest,3.8,No
2015/08/29,16:20,0.471,0.272,0.488,0.448,0.441,0.217,0.187,north-northwest,4.3,No
2015/08/29,16:30,0.479,0.272,0.487,0.447,0.446,0.216,0.188,north-northwest,4.9,No
2015/08/29,16:40,0.474,0.273,0.491,0.451,0.442,0.218,0.187,north-northwest,4.9,No
2015/08/29,16:50,0.477,0.271,0.485,0.444,0.447,0.216,0.187,north-northwest,5.4,Yes
2015/08/29,17:00,0.478,0.274,0.494,0.451,0.443,0.218,0.188,north-northwest,5.5,Yes
2015/08/29,17:10,0.474,0.273,0.489,0.450,0.444,0.219,0.187,north-northwest,5.9,Yes
2015/08/29,17:20,0.481,0.275,0.487,0.447,0.447,0.217,0.187,north-northwest,6.1,Yes
2015/08/29,17:30,0.474,0.272,0.492,0.451,0.442,0.219,0.187,north-northwest,6.4,Yes
2015/08/29,17:40,0.478,0.272,0.487,0.445,0.447,0.218,0.187,north-northwest,6.7,Yes
2015/08/29,17:50,0.476,0.274,0.491,0.449,0.443,0.218,0.188,north-northwest,6.4,Yes
2015/08/29,18:00,0.474,0.272,0.486,0.446,0.445,0.218,0.188,north-northwest,5.8,Yes
2015/08/29,18:10,0.478,0.273,0.491,0.446,0.442,0.217,0.188,north-northwest,6.2,Yes
2015/08/29,18:20,0.474,0.271,0.488,0.448,0.444,0.218,0.187,north-northwest,6.2,No
2015/08/29,18:30,0.478,0.273,0.487,0.444,0.444,0.216,0.187,north-northwest,7.0,No
2015/08/29,18:40,0.475,0.272,0.492,0.449,0.443,0.218,0.186,north-northwest,6.4,No
2015/08/29,18:50,0.475,0.274,0.487,0.445,0.446,0.217,0.188,north-northwest,6.6,No
2015/08/29,19:00,0.478,0.273,0.491,0.449,0.440,0.217,0.187,north-northwest,6.5,No
2015/08/29,19:10,0.474,0.273,0.487,0.447,0.446,0.218,0.187,north-northwest,6.7,No
2015/08/29,19:20,0.478,0.273,0.488,0.445,0.442,0.217,0.187,north-northwest,6.2,No
2015/08/29,19:30,0.473,0.271,0.489,0.449,0.445,0.219,0.188,north-northwest,6.2,No
2015/08/29,19:40,0.478,0.273,0.488,0.446,0.444,0.217,0.187,north,5.8,No
2015/08/29,19:50,0.475,0.271,0.491,0.449,0.443,0.217,0.188,north,5.4,Yes
2015/08/29,20:00,0.476,0.274,0.487,0.444,0.444,0.217,0.188,north,4.9,Yes
2015/08/29,20:10,0.475,0.272,0.493,0.447,0.440,0.217,0.187,north,4.3,Yes
2015/08/29,20:20,0.472,0.272,0.486,0.445,0.443,0.218,0.188,north-northwest,3.1,Yes
2015/08/29,20:30,0.475,0.272,0.484,0.444,0.439,0.218,0.186,north,3.7,Yes
2015/08/29,20:40,0.472,0.272,0.485,0.445,0.444,0.218,0.189,north,3.1,No
2015/08/29,20:50,0.476,0.274,0.484,0.443,0.441,0.217,0.187,north,2.2,No
2015/08/29,21:00,0.473,0.271,0.489,0.447,0.445,0.218,0.189,north-northeast,1.7,No
2015/08/29,21:10,0.473,0.274,0.484,0.445,0.443,0.218,0.187,east-northeast,2.2,No
2015/08/29,21:20,0.475,0.271,0.489,0.445,0.443,0.217,0.188,east-northeast,3.1,No
2015/08/29,21:30,0.469,0.271,0.487,0.448,0.444,0.218,0.188,east,4.8,No
2015/08/29,21:40,0.476,0.273,0.484,0.444,0.440,0.216,0.186,east-northeast,5.6,No
2015/08/29,21:50,0.474,0.271,0.489,0.449,0.446,0.219,0.187,east-northeast,4.0,No
2015/08/29,22:00,0.471,0.272,0.484,0.444,0.444,0.217,0.186,east-northeast,3.6,No
2015/08/29,22:10,0.477,0.271,0.490,0.447,0.442,0.217,0.187,east-northeast,3.9,No
2015/08/29,22:20,0.472,0.273,0.487,0.447,0.446,0.218,0.186,east-northeast,5.0,No
2015/08/29,22:30,0.477,0.271,0.485,0.444,0.440,0.217,0.187,east-northeast,3.7,No
2015/08/29,22:40,0.475,0.271,0.488,0.449,0.446,0.218,0.187,east-northeast,4.6,No
2015/08/29,22:50,0.472,0.272,0.484,0.444,0.440,0.217,0.187,east-northeast,5.3,No
2015/08/29,23:00,0.476,0.271,0.489,0.447,0.444,0.217,0.188,east-northeast,5.2,No
2015/08/29,23:10,0.472,0.272,0.487,0.449,0.445,0.219,0.186,east-northeast,5.8,No
2015/08/29,23:20,0.477,0.271,0.486,0.446,0.440,0.217,0.188,east,5.0,No
2015/08/29,23:30,0.477,0.272,0.491,0.452,0.447,0.218,0.187,east-northeast,4.5,No
2015/08/29,23:40,0.473,0.273,0.487,0.445,0.443,0.216,0.188,east-northeast,4.2,No
2015/08/29,23:50,0.480,0.270,0.492,0.449,0.444,0.217,0.188,east-northeast,2.9,No
